Volver al catálogo

BREEZE-KM R/B

ActivoPO
NORAD 41336·ROCKET BODY·🇷🇺 Russia

Lanzado Feb 16, 2016 desde Plesetsk Cosmodrome

Loading…

Próximos Pases (próximas 24 horas)

TLE

ActualizadoSource: Space-Track

Época: Sep 14, 2026, 14:53 UTC

1 41336U 16011B   26257.62023352  .00006142  00000-0  15716-3 0  9997
2 41336  98.6415 144.7415 0135764 133.4213 227.8420 15.30932724581141

Sigue BREEZE-KM R/B en tiempo real con AllMySat

Download on the App Store